User: anonymous   Login
Location: Unspecified
(0.0000°N, 0.0000°E)
Time: 18:51:32
(UTC+00:00)
Language:

Tiros N - Orbit

View from above orbital plane
View from above orbital plane
View from above satellite
View from above satellite

Ground track
Ground track

The orbit data is extracted from the following two-line orbital elements,

1 11060U 78096A   17234.16004811 +.00000009 +00000-0 +26418-4 0  9990
2 11060 098.8888 284.2718 0011267 148.3485 211.8369 14.18165631222092
Epoch (UTC): 22 August 2017 03:50:28
Eccentricity: 0.0011267
inclination: 98.8888°
perigee height: 823 km
apogee height: 839 km
right ascension of ascending node: 284.2718°
argument of perigee: 148.3485°
revolutions per day: 14.18165631
mean anomaly at epoch: 211.8369°
orbit number at epoch: 22209

The dashed part of the orbit path shows where the satellite is in the earth's shadow,  

DLR